Regional Weather Roundup
Issued by NWS Wakefield, VA

Home | Current Version | Previous Version | Graphics & Text | Print | Product List | Glossary On
Versions: 1 2 3 4 5 6 7 8 9 10 11 12 13 14 15 16 17 18 19 20 21 22 23 24 25 26 27 28 29 30 31 32 33 34 35 36 37 38 39 40 41 42 43 44 45 46 47 48 49 50
188
ASUS41 KAKQ 301415
RWRAKQ

REGIONAL WEATHER ROUNDUP
NATIONAL WEATHER SERVICE WAKEFIELD VA
1000 AM EDT SAT APR 30 2016

Note: "fair" indicates few or no clouds below 12,000 feet with no
significant weather and/or obstructions to visibility. * = Denotes
station may not report precipitation (e.g., rain,snow,etc.),
thunder or fog.

VAZ042-051-052>054-056-301500-
NORTHERN VIRGINIA

CITY           SKY/WX    TMP DP  RH WIND       PRES   REMARKS
WASH NATIONAL  CLOUDY    53  47  79 E7        30.21S
DULLES         CLOUDY    52  48  86 E7        30.20R FOG
FORT BELVOIR   CLOUDY    53  46  77 VRB3      30.20S
QUANTICO       CLOUDY    55  48  77 NE10      30.21S
FREDERICKSBRG* CLOUDY    54  53  98 NE7       30.19R
STAFFORD*      CLOUDY    53  48  84 NE7       30.23S
WARRENTON      CLOUDY    55  47  77 NE5       30.18S
CULPEPER*      CLOUDY    55  51  89 E3        30.19S
MANASSAS*      CLOUDY    54  52  94 SE5       30.20R
LEESBURG*      CLOUDY    54  54 100 CALM      30.21R FOG
WINCHESTER     CLOUDY    52  52 100 CALM      30.18R FOG
FRONT ROYAL*   CLOUDY    54  50  87 E7        30.16S
LURAY*         CLOUDY    55  54  94 NE5       30.14F
$$

VAZ048-049-060>072-079>083-301500-
CENTRAL AND SOUTH CENTRAL VIRGINIA

CITY           SKY/WX    TMP DP  RH WIND       PRES   REMARKS
RICHMOND       CLOUDY    54  50  86 E6        30.18R
CHESTERFIELD*  CLOUDY    55  39  54 E8        30.19S
PETERSBURG*    CLOUDY    57  52  85 NE9       30.18S
HANOVER        CLOUDY    55  48  77 VRB5      30.20R
TAPPAHANNOCK*  CLOUDY    54  51  90 E6        30.20S
QUINTON*       CLOUDY    54  51  87 MISG      30.18S
CHARLOTTSVILLE CLOUDY    55  50  83 E7        30.16S
GORDONSVILLE*  CLOUDY    54  52  94 CALM      30.17S
ORANGE*        CLOUDY    54  54 100 CALM      30.20R
LOUISA*        CLOUDY    57  54  88 E3        30.16S
BUMPASS*       CLOUDY    54  50  87 E6        30.18R
FARMVILLE*     CLOUDY    57  54  90 NE6       30.15S
CREWE*         CLOUDY    56  55  98 E5        30.16S
FORT PICKETT*  NOT AVBL
CHASE CITY*    CLOUDY    56  54  94 E5        30.14S
CLARKSVILLE*   CLOUDY    57  54  88 E7        30.13S
SOUTH HILL*    CLOUDY    54  52  94 CALM      30.20S
LAWRENCEVILLE* CLOUDY    55  52  88 NE7       30.15S
EMPORIA*       CLOUDY    54  50  87 NE5       30.18S
$$

VAZ088>098-301500-
SOUTHEAST VIRGINIA

CITY           SKY/WX    TMP DP  RH WIND       PRES   REMARKS
NORFOLK        CLOUDY    54  50  86 NE12      30.18R
VIRGINIA BEACH DRIZZLE   57  50  77 NE10      30.17R
NORFOLK NAVAL  CLOUDY    56  51  84 NE10      30.19S
WEST POINT*    CLOUDY    55  50  85 NE5       30.21R
SALUDA*        CLOUDY    53  51  94 N6        30.19R
NEWPORT NEWS   CLOUDY    56  52  86 E9        30.18S
LANGLEY AFB    CLOUDY    55  51  87 E10       30.18R
FORT EUSTIS    CLOUDY    56  52  85 E9        30.16R
WILLIAMSBURG*  FAIR      57  54  88 CALM      30.19S
HR EXEC AP*    CLOUDY    55  52  88 NE7       30.19S
FRANKLIN*      CLOUDY    56  52  85 NE7       30.17F
US460-WAKEFLD  CLOUDY    57  50  77 VRB6      30.17S
$$

VAZ020-022-025-037-045-301500-
WEST CENTRAL AND SOUTHWEST VIRGINIA

CITY           SKY/WX    TMP DP  RH WIND       PRES   REMARKS
STAUNTON*      CLOUDY    58  55  91 NE3       30.15F FOG
WAYNESBORO*    CLOUDY    53  50  90 MISG      30.14F
HOT SPRINGS VA LGT RAIN  52  52 100 SE5       30.13S VSB<1/4
LYNCHBURG      CLOUDY    53  53 100 NE7       30.16S FOG
DANVILLE       CLOUDY    58  55  90 E6        30.13S
SOUTH BOSTON*  CLOUDY    57  56  95 E5        30.13S
MARTINSVILLE   CLOUDY    55  54  95 E3        30.15R
ROANOKE        CLOUDY    56  54  93 SE7       30.15S FOG
BLACKSBURG     FOG       55  55 100 E3        30.17R VSB 3/4
DUBLIN*        CLOUDY    59  56  92 E7        30.14R
MARION*        PTSUNNY   62  55  75 E9        30.14R
HILLSVILLE*    CLOUDY    56  55  94 SE3       30.13R
RICHLANDS*     FAIR      66  53  61 E8        30.05S
WISE*          FAIR      66  41  39 SE6       30.05S
ABINGDON*      FAIR      70  52  54 E10       30.04S
$$

MDZ021>025-VAZ099-100-301500-
SOUTHERN MARYLAND AND THE DELMARVA PENINSULA

CITY           SKY/WX    TMP DP  RH WIND       PRES   REMARKS
PATUXENT RIVER CLOUDY    52  46  80 E6        30.20R
BAY BRIDGE APT NOT AVBL
LEONARDTOWN    CLOUDY    52  46  82 E5        30.21R
DOVER          CLOUDY    52  49  89 NE7       30.19S
GEORGETOWN     CLOUDY    51  48  89 NE9       30.19F
EASTON         CLOUDY   N/A N/A N/A NE3       30.24R
CAMBRIDGE      CLOUDY    50  46  87 NE6       30.20R
SALISBURY      CLOUDY    51  48  89 NE8       30.19R
OCEAN CITY     CLOUDY    52  47  83 NE8       30.19R
WALLOPS ISLAND CLOUDY    53  48  83 MISG      30.19R
ACCOMACK*      CLOUDY    52  34  50 E7        30.19R
$$

NCZ012>017-030>032-301500-
NORTH CENTRAL AND EASTERN NORTH CAROLINA

CITY           SKY/WX    TMP DP  RH WIND       PRES   REMARKS
ROANOKE RAPIDS CLOUDY    55  52  88 NE6       30.16S
RALEIGH        CLOUDY    60  57  89 SE7       30.13S
ELIZABETH CITY CLOUDY    56  52  86 NE13      30.17R
AHOSKIE*       CLOUDY    55  52  88 N7        30.16S
EDENTON*       CLOUDY    58  57  95 NE8       30.17R
CURRITUCK*     CLOUDY    55  52  90 NE9       30.18R
KILL DEVIL HLS CLOUDY    56  52  89 NE8       30.15R FOG
MANTEO         NOT AVBL
CAPE HATTERAS  PTSUNNY   61  54  77 NE10G21   30.13S
TARBORO*       CLOUDY    60  55  85 NE6       30.16S
GOLDSBORO      CLOUDY    64  63  94 E6        30.11S
WASHINGTON     CLOUDY    58  54  85 E7        30.15S
GREENVILLE     CLOUDY    59  55  88 SE5       30.16S
NEW BERN       CLOUDY    60  54  80 E6        30.15S
WILMINGTON     CLOUDY    65  59  81 E13       30.11R
$$

VAZ048-301500-
ELSEWHERE

CITY           SKY/WX    TMP DP  RH WIND       PRES   REMARKS
HARRISBURG PA  CLOUDY    51  43  74 CALM      30.21S
BALTIMORE      CLOUDY    51  45  79 VRB3      30.20S
ANNAPOLIS      CLOUDY    52  46  80 MISG      30.21R
ANDREWS AFB    CLOUDY    51  46  85 E5        30.19R
PHILADELPHIA   PTSUNNY   53  40  61 NE6       30.22F
HENDERSON NC   CLOUDY    58  56  93 E8        30.13F
GREENSBORO     DRIZZLE   59  58  96 E9        30.11R FOG
ROCKY MOUNT    CLOUDY    61  54  77 VRB5      30.14S
$$

VAZ100-301500-
MARINE

STATION/POSITION TIME  TEMP    WIND        PRES    WAVE   SWELL
                       AIR SEA DIR/SP/G            HT/PER HT/PER
                 (UTC) (F)     (DEG/KT/KT) (MB)    (FT/S) (FT/S)
BRANDYWINE LGT   1300   49      60/ 11/ 13 1022.5R
CAPE MAY NJ      1300   51 56   70/  7/ 11 1022.3R
LEWES DE         1300   50 54   50/ 13/ 15 1022.4R
15NM E FENWICK I 1350   50 51              1021.3F   6/ 8
OCEAN-CITY-INLET 1300   51 53   70/  5/ 10 1021.1F
WACHAPREAGUE VA  1300   51 57   30/  9/ 12 1021.2S
THOMAS POINT MD  1400   50 57   20/  7/  8 1024.2R
GOOSES REEF MD   1400   51 57   60/  4/  8 1023.6R   1/ 2
COVE POINT MD    1300   49      60/  7/  8 1022.8R
SOLOMONS ISLAND  1300   51 60   70/  5/  7   N/A
BISHOPS HEAD MD  1300   51 57   50/  7/ 10 1021.4R
PINEY POINT MD   1300           80/  5/  6   N/A
POTOMAC MD       1400   52 58   60/  8/  8 1021.7R   1
CAMBRIDGE MD     1300   50 59   40/  8/ 10 1021.4S
LEWISETTA VA     1300   52 59   70/  5/  6 1022.1R
RAPPAHANNOCK LGT 1300           70/  7/  8 1022.3R
STINGRAY PT      1400   53 60   60/ 10/ 16 1022.6R   1/ 3
YORK RVR RNG VA  1300   54      50/ 11/ 13 1021.0R
YORKTOWN VA      1300   55 62   50/  9/ 11 1021.5R
JAMESTOWN VA     1400   55 66   30/  6/  8   N/A     0
DOMINION TERM VA 1300   55      60/  7/ 12 1021.5R
KIPTOPEKE VA     1300      60   50/  8/ 13   N/A
CHES BAY BRIDGE  1300   53 59   30/ 12/ 17 1020.8R
CAPE HENRY VA    1300   53      40/ 13/ 16   N/A
CHESAPEAKE LGHT  1300   51      40/ 16/ 17 1021.7R
WILLOUBY STN VA  1300   54      60/ 10/ 12 1022.2R
CAPE HENRY BUOY  1312      55                N/A     5/10   2/11
CAPE CHARLES BUO 1326      56                N/A     5/ 8   3/ 8
OFFSHORE WE BUOY 1321      53                N/A     6/ 8   5/ 8
64NM E OF VA BCH 1250   51 53   10/ 14/ 17 1020.2    7/10   5/10
DUCK PIER NC     1300   53 67   20/ 15/ 17 1020.2R
44100 DUCK FRF   1324      56                N/A     5/ 8   2/11
44056 DUCK FRF   1311      58                N/A     5/11   2/11
OREGON INLET NC  1300   55 62   10/ 12/ 15 1020.4R
HATTERAS NC      1300   60 69   30/ 12/ 20 1019.8F
DIAMOND SHLS NC  1250   60 74   30/ 16/ 19 1019.9    5/11   3/11
CAPE LOOKOUT NC  1400   61      50/  8/  9 1C1F1C2F2C3F3C4F4C5F5C6F6C7F7C8M1C9!



USA.gov is the U.S. government's official web portal to all federal, state and local government web resources and services.